KB6LA Weather Reports


time (UTC)temp
C
wind
direction
speed
KPH
gust
KPH
rain 1hr
cm
rain 24hr
cm
rain mn
cm
humidity
%
barometer
mb
20260504000125 16 264 9.7 17.7 0.00 0.00 0.00 71 1011.8
20260503235618 15 215 11.3 25.7 0.00 0.00 0.00 72 1011.8
20260503235111 15 231 19.3 25.7 0.00 0.00 0.00 72 1011.8
20260503234604 16 237 14.5 25.7 0.00 0.00 0.00 71 1012.1
20260503234057 16 236 14.5 20.9 0.00 0.00 0.00 73 1011.8
20260503233549 16 262 11.3 22.5 0.00 0.00 0.00 74 1011.8
20260503233041 16 218 16.1 25.7 0.00 0.00 0.00 73 1011.8
20260503232535 16 267 16.1 25.7 0.00 0.00 0.00 73 1012.1
20260503231519 16 283 11.3 17.7 0.00 0.00 0.00 70 1012.1
20260503231012 16 270 14.5 22.5 0.00 0.00 0.00 71 1012.1
20260503230505 16 273 9.7 22.5 0.00 0.00 0.00 70 1012.1
20260503225959 16 258 11.3 25.7 0.00 0.00 0.00 69 1012.4
20260503225450 17 232 20.9 25.7 0.00 0.00 0.00 67 1012.1
20260503224943 17 222 9.7 20.9 0.00 0.00 0.00 67 1012.1
20260503223929 17 229 14.5 22.5 0.00 0.00 0.00 66 1012.4
20260503223422 17 224 11.3 22.5 0.00 0.00 0.00 65 1012.4
20260503222914 17 236 17.7 22.5 0.00 0.00 0.00 64 1012.4
20260503222407 17 235 9.7 22.5 0.00 0.00 0.00 66 1012.4
20260503221900 17 236 6.4 20.9 0.00 0.00 0.00 68 1012.4
20260503221353 17 249 17.7 24.1 0.00 0.00 0.00 66 1012.8
20260503220846 16 230 8.0 24.1 0.00 0.00 0.00 67 1012.8
20260503220338 16 232 8.0 22.5 0.00 0.00 0.00 65 1012.8
20260503215830 16 238 14.5 24.1 0.00 0.00 0.00 66 1012.8
20260503215323 17 207 12.9 24.1 0.00 0.00 0.00 66 1012.8
20260503214309 17 213 17.7 24.1 0.00 0.00 0.00 64 1012.8
20260503213801 17 201 19.3 24.1 0.00 0.00 0.00 61 1013.1
20260503213254 17 256 6.4 24.1 0.00 0.00 0.00 63 1012.8
20260503212747 17 266 11.3 24.1 0.00 0.00 0.00 61 1012.8
20260503212240 17 214 16.1 20.9 0.00 0.00 0.00 63 1012.8
20260503211225 17 287 14.5 25.7 0.00 0.00 0.00 61 1012.8
20260503210718 17 229 19.3 24.1 0.00 0.00 0.00 61 1013.1
20260503210210 17 216 14.5 24.1 0.00 0.00 0.00 64 1013.1
20260503205703 16 64 6.4 25.7 0.00 0.00 0.00 64 1012.8
20260503204649 16 245 14.5 24.1 0.00 0.00 0.00 64 1012.8
20260503204141 17 252 11.3 24.1 0.00 0.00 0.00 61 1013.1
20260503203127 17 252 14.5 20.9 0.00 0.00 0.00 64 1012.8
20260503202619 17 286 9.7 20.9 0.00 0.00 0.00 63 1012.8
20260503202112 17 250 17.7 20.9 0.00 0.00 0.00 62 1013.1
20260503201604 17 232 12.9 22.5 0.00 0.00 0.00 63 1013.1
20260503201057 17 190 8.0 22.5 0.00 0.00 0.00 62 1013.1
20260503200043 17 233 9.7 22.5 0.00 0.00 0.00 62 1013.1
20260503195535 17 261 8.0 17.7 0.00 0.00 0.00 60 1013.1
20260503193506 17 215 9.7 16.1 0.00 0.00 0.00 63 1013.4
20260503192959 17 187 9.7 20.9 0.00 0.00 0.00 61 1013.4
20260503192452 17 253 12.9 22.5 0.00 0.00 0.00 63 1013.1
20260503191438 17 267 8.0 22.5 0.00 0.00 0.00 62 1013.4
20260503190930 17 206 8.0 20.9 0.00 0.00 0.00 61 1013.4
20260503190423 17 233 9.7 20.9 0.00 0.00 0.00 61 1013.4
20260503185408 17 195 6.4 22.5 0.00 0.00 0.00 63 1013.4
20260503184902 17 230 19.3 22.5 0.00 0.00 0.00 62 1013.4
20260503184354 17 216 6.4 17.7 0.00 0.00 0.00 63 1013.4
20260503183847 17 243 6.4 16.1 0.00 0.00 0.00 62 1013.4
20260503183340 17 204 4.8 12.9 0.00 0.00 0.00 61 1013.4
20260503182833 17 181 8.0 12.9 0.00 0.00 0.00 63 1013.4
20260503182325 17 267 0.0 14.5 0.00 0.00 0.00 65 1013.4
20260503181818 17 264 4.8 14.5 0.00 0.00 0.00 63 1013.4
20260503181310 16 263 1.6 14.5 0.00 0.00 0.00 66 1013.4
20260503180803 16 249 8.0 14.5 0.00 0.00 0.00 66 1013.4
20260503180256 16 311 6.4 12.9 0.00 0.00 0.00 67 1013.4
20260503175241 16 292 6.4 16.1 0.00 0.00 0.00 69 1013.8
20260503174734 16 241 11.3 16.1 0.00 0.00 0.00 70 1013.8
20260503174226 16 250 11.3 16.1 0.00 0.00 0.00 70 1013.8
20260503173719 16 226 9.7 16.1 0.00 0.00 0.00 71 1013.8
20260503172705 15 219 11.3 16.1 0.00 0.00 0.00 73 1013.8
20260503172158 15 253 12.9 16.1 0.00 0.00 0.00 73 1013.8
20260503170636 15 240 8.0 14.5 0.00 0.00 0.00 74 1013.4
20260503170129 15 261 9.7 14.5 0.00 0.00 0.00 74 1013.4
20260503150849 15 226 6.4 11.3 0.00 0.00 0.00 78 1012.8
20260503150341 15 275 3.2 11.3 0.00 0.00 0.00 79 1012.8
20260503140214 14 232 1.6 3.2 0.00 0.00 0.00 83 1011.8
20260503131101 14 323 0.0 3.2 0.00 0.00 0.00 86 1011.4
20260503130554 14 307 1.6 4.8 0.00 0.00 0.00 86 1011.8
20260503110807 15 267 0.0 1.6 0.00 0.00 0.00 80 1011.8
20260503110300 15 267 0.0 3.2 0.00 0.00 0.00 80 1011.8
20260503100133 15 279 0.0 4.8 0.00 0.00 0.00 83 1011.8
20260503081400 15 224 3.2 6.4 0.00 0.00 0.00 85 1012.4
20260503080853 14 239 4.8 6.4 0.00 0.00 0.00 86 1012.1
20260503072756 14 229 8.0 11.3 0.00 0.00 0.00 89 1012.1
20260503072248 14 239 6.4 9.7 0.00 0.00 0.00 90 1012.1
20260503071741 14 187 6.4 9.7 0.00 0.00 0.00 90 1012.1
20260503071234 14 213 4.8 9.7 0.00 0.00 0.00 90 1011.8
20260503070726 14 217 4.8 6.4 0.00 0.00 0.00 90 1011.8
20260503070219 14 202 3.2 9.7 0.00 0.00 0.00 90 1011.8
20260503055037 14 241 8.0 11.3 0.00 0.00 0.00 89 1011.8
20260503054530 14 200 3.2 12.9 0.00 0.00 0.00 89 1011.8
20260503054022 14 226 6.4 12.9 0.00 0.00 0.00 89 1011.8
20260503053515 15 256 3.2 12.9 0.00 0.00 0.00 89 1012.1
20260503053009 15 249 4.8 14.5 0.00 0.00 0.00 89 1012.1
20260503052501 15 205 8.0 14.5 0.00 0.00 0.00 90 1012.1
20260503051954 14 234 6.4 14.5 0.00 0.00 0.00 90 1012.1
20260503050939 15 209 6.4 11.3 0.00 0.00 0.00 90 1012.1
20260503050431 15 227 6.4 11.3 0.00 0.00 0.00 90 1012.1
20260503045417 15 245 6.4 14.5 0.00 0.00 0.00 91 1011.8
20260503044911 15 226 4.8 14.5 0.00 0.00 0.00 91 1011.8
20260503043855 15 214 8.0 12.9 0.00 0.00 0.00 90 1011.8
20260503043348 15 180 4.8 11.3 0.00 0.00 0.00 90 1011.8
20260503042841 15 220 8.0 12.9 0.00 0.00 0.00 91 1011.8
20260503042334 15 212 6.4 12.9 0.00 0.00 0.00 90 1011.4
20260503041826 15 195 4.8 9.7 0.00 0.00 0.00 90 1011.4
20260503041320 15 197 3.2 12.9 0.00 0.00 0.00 91 1011.4
20260503040812 15 198 6.4 12.9 0.00 0.00 0.00 90 1011.1
20260503040304 15 253 1.6 12.9 0.00 0.00 0.00 90 1011.1
20260503035758 15 256 4.8 12.9 0.00 0.00 0.00 90 1011.1
20260503034743 15 246 1.6 12.9 0.00 0.00 0.00 90 1011.1
20260503034236 15 273 6.4 12.9 0.00 0.00 0.00 90 1010.7
20260503033221 15 229 3.2 9.7 0.00 0.00 0.00 90 1010.7
20260503032714 15 223 3.2 11.3 0.00 0.00 0.00 90 1010.7
20260503032207 15 208 8.0 11.3 0.00 0.00 0.00 90 1010.4
20260503031659 15 259 1.6 14.5 0.00 0.00 0.00 90 1010.4
20260503031152 15 233 8.0 14.5 0.00 0.00 0.00 89 1010.4
20260503030644 15 268 3.2 11.3 0.00 0.00 0.00 89 1010.4
20260503030137 15 286 3.2 11.3 0.00 0.00 0.00 89 1010.1
20260503025631 15 266 3.2 11.3 0.00 0.00 0.00 89 1010.1
20260503024109 15 316 9.7 12.9 0.00 0.00 0.00 88 1010.1
20260503023601 15 248 8.0 14.5 0.00 0.00 0.00 88 1010.1
20260503022546 15 225 6.4 14.5 0.00 0.00 0.00 88 1010.1
20260503021532 15 261 8.0 14.5 0.00 0.00 0.00 87 1009.7
20260503021025 15 271 6.4 12.9 0.00 0.00 0.00 87 1009.7
20260503020517 15 208 8.0 12.9 0.00 0.00 0.00 86 1010.1
20260503020010 15 235 6.4 12.9 0.00 0.00 0.00 86 1009.7
20260503015503 15 273 6.4 12.9 0.00 0.00 0.00 86 1009.7
20260503014956 15 241 8.0 16.1 0.00 0.00 0.00 86 1009.7
20260503013941 15 276 8.0 14.5 0.00 0.00 0.00 85 1009.7
20260503012926 15 264 9.7 20.9 0.00 0.00 0.00 85 1009.7
20260503012419 16 232 11.3 20.9 0.00 0.00 0.00 84 1009.7
20260503011912 16 239 9.7 16.1 0.00 0.00 0.00 82 1009.7
20260503011405 16 243 8.0 16.1 0.00 0.00 0.00 81 1009.7
20260503010858 16 151 4.8 16.1 0.00 0.00 0.00 81 1009.7
20260503010350 16 217 6.4 17.7 0.00 0.00 0.00 82 1009.7
20260503005842 16 254 9.7 17.7 0.00 0.00 0.00 82 1009.7
20260503005335 16 250 9.7 16.1 0.00 0.00 0.00 82 1009.4
20260503004828 16 231 11.3 16.1 0.00 0.00 0.00 82 1009.7
20260503004321 16 227 9.7 20.9 0.00 0.00 0.00 82 1009.7
20260503003306 16 279 9.7 20.9 0.00 0.00 0.00 81 1009.7
20260503002252 16 246 11.3 20.9 0.00 0.00 0.00 80 1009.7
20260503001745 17 240 14.5 22.5 0.00 0.00 0.00 80 1010.1
20260503001237 16 224 11.3 22.5 0.00 0.00 0.00 80 1009.7
20260503000730 17 221 9.7 17.7 0.00 0.00 0.00 78 1009.7